DW5657 Weather Reports


Display with metric or nautical units.
time (UTC)temp
F
wind
direction
speed
MPH
gust
MPH
rain 1hr
in
rain 24hr
in
rain mn
in
humidity
%
barometer
mb
20260904131205 83 224 0.0 3.0 0.00 0.00 0.00 75 1014.5
20260904130703 83 224 1.0 5.0 0.00 0.00 0.00 75 1014.4
20260904130205 83 202 2.0 3.0 0.00 0.00 0.00 76 1014.3
20260904125704 82 225 0.0 5.0 0.00 0.00 0.00 77 1014.4
20260904125203 82 209 0.0 5.0 0.00 0.00 0.00 78 1014.4
20260904124703 81 196 1.0 3.0 0.00 0.00 0.00 78 1014.5
20260904124204 81 210 1.0 3.0 0.00 0.00 0.00 79 1014.5
20260904123703 81 235 0.0 2.0 0.00 0.00 0.00 80 1014.4
20260904122703 80 114 0.0 2.0 0.00 0.00 0.00 80 1014.4
20260904122203 80 100 0.0 0.0 0.00 0.00 0.00 81 1014.4
20260904121204 79 74 0.0 0.0 0.00 0.00 0.00 82 1014.3
20260904120703 79 71 0.0 0.0 0.00 0.00 0.00 82 1014.2
20260904120204 79 60 0.0 0.0 0.00 0.00 0.00 82 1014.1
20260904115703 79 58 0.0 0.0 0.00 0.00 0.00 83 1014.0
20260904115203 78 60 0.0 0.0 0.00 0.00 0.00 83 1014.0
20260904113704 78 44 0.0 0.0 0.00 0.00 0.00 83 1013.8
20260904113204 78 46 0.0 0.0 0.00 0.00 0.00 83 1013.8
20260904112705 78 45 0.0 0.0 0.00 0.00 0.00 84 1013.7
20260904111204 77 49 0.0 0.0 0.00 0.00 0.00 85 1013.5
20260904110703 77 63 0.0 0.0 0.00 0.00 0.00 85 1013.4
20260904110203 77 63 0.0 0.0 0.00 0.00 0.00 85 1013.3
20260904105703 77 64 0.0 0.0 0.00 0.00 0.00 85 1013.2
20260904105203 77 65 0.0 0.0 0.00 0.00 0.00 85 1013.1
20260904104703 77 69 0.0 0.0 0.00 0.00 0.00 85 1013.1
20260904104203 77 68 0.0 0.0 0.00 0.00 0.00 85 1013.1
20260904103703 78 69 0.0 0.0 0.00 0.00 0.00 85 1013.1
20260904103204 78 70 0.0 0.0 0.00 0.00 0.00 84 1013.1
20260904102703 78 68 0.0 0.0 0.00 0.00 0.00 84 1013.1
20260904102203 78 68 0.0 0.0 0.00 0.00 0.00 83 1013.1
20260904101704 78 65 0.0 0.0 0.00 0.00 0.00 83 1013.2
20260904101204 78 65 0.0 0.0 0.00 0.00 0.00 83 1013.2
20260904100704 78 68 0.0 0.0 0.00 0.00 0.00 83 1013.2
20260904100203 78 65 0.0 0.0 0.00 0.00 0.00 84 1013.2
20260904095704 78 66 0.0 0.0 0.00 0.00 0.00 84 1013.2
20260904095204 78 66 0.0 0.0 0.00 0.00 0.00 83 1013.1
20260904094704 78 66 0.0 0.0 0.00 0.00 0.00 83 1013.1
20260904094204 78 67 0.0 0.0 0.00 0.00 0.00 83 1013.1
20260904093703 78 69 0.0 0.0 0.00 0.00 0.00 83 1013.1
20260904093204 78 67 0.0 0.0 0.00 0.00 0.00 83 1013.0
20260904092704 79 68 0.0 0.0 0.00 0.00 0.00 83 1013.0
20260904092203 79 68 0.0 0.0 0.00 0.00 0.00 83 1013.1
20260904091704 79 67 0.0 0.0 0.00 0.00 0.00 83 1013.1
20260904091204 79 69 0.0 0.0 0.00 0.00 0.00 83 1013.1
20260904090703 79 68 0.0 0.0 0.00 0.00 0.00 83 1013.1
20260904090204 79 65 0.0 0.0 0.00 0.00 0.00 83 1013.1
20260904085703 79 61 0.0 0.0 0.00 0.00 0.00 83 1013.1
20260904085203 79 61 0.0 0.0 0.00 0.00 0.00 83 1013.1
20260904084205 79 61 0.0 0.0 0.00 0.00 0.00 82 1013.1
20260904083703 79 59 0.0 0.0 0.00 0.00 0.00 82 1013.1
20260904083204 79 59 0.0 0.0 0.00 0.00 0.00 83 1013.2
20260904082703 79 59 0.0 0.0 0.00 0.00 0.00 82 1013.2
20260904082204 79 58 0.0 0.0 0.00 0.00 0.00 82 1013.2
20260904081703 79 58 0.0 0.0 0.00 0.00 0.00 82 1013.2
20260904081204 79 57 0.0 0.0 0.00 0.00 0.00 83 1013.2
20260904080703 79 55 0.0 0.0 0.00 0.00 0.00 82 1013.2
20260904080204 79 54 0.0 0.0 0.00 0.00 0.00 83 1013.2
20260904075704 79 53 0.0 0.0 0.00 0.00 0.00 82 1013.1
20260904075205 79 54 0.0 0.0 0.00 0.00 0.00 82 1013.2
20260904074203 79 53 0.0 0.0 0.00 0.00 0.00 82 1013.3
20260904073703 79 60 0.0 0.0 0.00 0.00 0.00 82 1013.3
20260904072703 79 66 0.0 0.0 0.00 0.00 0.00 81 1013.3
20260904072204 80 69 0.0 0.0 0.00 0.00 0.00 80 1013.3
20260904071704 80 67 0.0 0.0 0.00 0.00 0.00 79 1013.3
20260904071204 80 66 0.0 0.0 0.00 0.00 0.00 79 1013.3
20260904070705 80 65 0.0 0.0 0.00 0.00 0.00 80 1013.4
20260904065703 80 65 0.0 0.0 0.00 0.00 0.00 79 1013.4
20260904064704 80 63 0.0 0.0 0.00 0.00 0.00 79 1013.5
20260904064203 80 63 0.0 0.0 0.00 0.00 0.00 79 1013.7
20260904063704 80 67 0.0 0.0 0.00 0.00 0.00 78 1013.6
20260904062703 81 65 0.0 0.0 0.00 0.00 0.00 77 1013.8
20260904061705 81 56 0.0 0.0 0.00 0.00 0.00 77 1013.8
20260904061205 82 55 0.0 0.0 0.00 0.00 0.00 76 1013.8
20260904060705 82 12 0.0 0.0 0.00 0.00 0.00 76 1013.9
20260904060203 82 61 0.0 0.0 0.00 0.00 0.00 76 1013.8
20260904055705 82 10 0.0 0.0 0.00 0.00 0.00 76 1013.8
20260904055203 82 12 0.0 0.0 0.00 0.00 0.00 75 1013.8
20260904054204 83 39 0.0 0.0 0.00 0.00 0.00 74 1013.8
20260904053703 83 23 0.0 0.0 0.00 0.00 0.00 74 1013.8
20260904052204 83 47 0.0 0.0 0.00 0.00 0.00 74 1013.8
20260904051704 83 44 0.0 0.0 0.00 0.00 0.00 74 1013.8
20260904051203 83 46 0.0 0.0 0.00 0.00 0.00 74 1013.8
20260904050704 83 46 0.0 0.0 0.00 0.00 0.00 74 1013.8
20260904050203 83 45 0.0 0.0 0.00 0.00 0.00 74 1013.7
20260904045704 83 45 0.0 0.0 0.00 0.00 0.00 74 1013.7
20260904044203 83 43 0.0 0.0 0.00 0.00 0.00 74 1013.7
20260904043207 83 42 0.0 0.0 0.00 0.00 0.00 73 1013.7
20260904042704 83 46 0.0 0.0 0.00 0.00 0.00 73 1013.7
20260904042204 83 44 0.0 0.0 0.00 0.00 0.00 73 1013.7
20260904041703 84 44 0.0 0.0 0.00 0.00 0.00 73 1013.7
20260904041204 84 45 0.0 0.0 0.00 0.00 0.00 73 1013.7
20260904040705 84 47 0.0 0.0 0.00 0.00 0.00 73 1013.7
20260904040203 84 49 0.0 0.0 0.00 0.00 0.00 73 1013.7
20260904035705 84 45 0.0 0.0 0.00 0.00 0.00 73 1013.6
20260904035203 84 43 0.0 0.0 0.00 0.00 0.00 73 1013.6
20260904034703 84 44 0.0 0.0 0.00 0.00 0.00 73 1013.5
20260904033704 84 42 0.0 0.0 0.00 0.00 0.00 73 1013.5
20260904033204 84 46 0.0 0.0 0.00 0.00 0.00 72 1013.6
20260904032704 84 47 0.0 0.0 0.00 0.00 0.00 72 1013.7
20260904032204 84 49 0.0 0.0 0.00 0.00 0.00 72 1013.7
20260904031704 84 49 0.0 0.0 0.00 0.00 0.00 71 1013.6
20260904030704 84 46 0.0 0.0 0.00 0.00 0.00 71 1013.6
20260904025203 85 52 0.0 0.0 0.00 0.00 0.00 70 1013.8
20260904024703 85 50 0.0 0.0 0.00 0.00 0.00 70 1013.8
20260904024203 85 51 0.0 0.0 0.00 0.00 0.00 70 1013.8
20260904023203 85 51 0.0 0.0 0.00 0.00 0.00 69 1013.8
20260904022704 85 51 0.0 0.0 0.00 0.00 0.00 69 1013.8
20260904022204 85 55 0.0 0.0 0.00 0.00 0.00 70 1013.7
20260904021705 85 55 0.0 0.0 0.00 0.00 0.00 70 1013.7
20260904020704 86 54 0.0 0.0 0.00 0.00 0.00 69 1013.6
20260904020203 86 45 0.0 0.0 0.00 0.00 0.00 69 1013.7
20260904015703 86 54 0.0 0.0 0.00 0.00 0.00 68 1013.8
20260904015204 86 57 0.0 0.0 0.00 0.00 0.00 68 1013.8
20260904014705 86 56 0.0 0.0 0.00 0.00 0.00 68 1013.8
20260904013704 87 72 0.0 0.0 0.00 0.00 0.00 67 1013.9
20260904013203 87 71 0.0 0.0 0.00 0.00 0.00 67 1013.9
20260904012704 87 59 0.0 0.0 0.00 0.00 0.00 67 1013.8
20260904012203 87 40 0.0 0.0 0.00 0.00 0.00 66 1013.8
20260904011704 87 64 0.0 0.0 0.00 0.00 0.00 66 1013.8
20260904011203 88 47 0.0 0.0 0.00 0.00 0.00 65 1013.8
20260904010703 88 57 0.0 0.0 0.00 0.00 0.00 65 1013.8
20260904010204 88 48 0.0 0.0 0.00 0.00 0.00 65 1013.7
20260904005705 88 71 0.0 0.0 0.00 0.00 0.00 64 1013.7
20260904005203 89 74 0.0 0.0 0.00 0.00 0.00 64 1013.6
20260904004704 89 78 0.0 0.0 0.00 0.00 0.00 63 1013.6
20260904004203 89 67 0.0 0.0 0.00 0.00 0.00 63 1013.5
20260904003703 89 61 0.0 0.0 0.00 0.00 0.00 62 1013.4
20260904003203 90 135 0.0 0.0 0.00 0.00 0.00 62 1013.3
20260904002203 90 160 0.0 0.0 0.00 0.00 0.00 61 1013.2
20260904001704 90 163 0.0 0.0 0.00 0.00 0.00 60 1013.2
20260904001203 91 170 0.0 0.0 0.00 0.00 0.00 60 1013.3
20260904000704 91 306 0.0 0.0 0.00 0.00 0.00 59 1013.3
20260904000205 91 306 0.0 0.0 0.00 0.00 0.00 59 1013.3
20260903235704 91 306 0.0 0.0 0.00 0.00 0.00 59 1013.2
20260903234703 92 337 0.0 0.0 0.00 0.00 0.00 58 1013.2
20260903234203 92 233 0.0 0.0 0.00 0.00 0.00 58 1013.1
20260903233704 92 217 0.0 0.0 0.00 0.00 0.00 58 1013.1
20260903233203 92 195 0.0 0.0 0.00 0.00 0.00 58 1013.0
20260903231704 93 223 0.0 0.0 0.00 0.00 0.00 57 1012.9
20260903231203 93 223 0.0 0.0 0.00 0.00 0.00 57 1012.9
20260903225704 93 221 0.0 1.0 0.00 0.00 0.00 55 1012.9
20260903225203 94 232 0.0 3.0 0.00 0.00 0.00 56 1013.0
20260903224703 94 226 1.0 3.0 0.00 0.00 0.00 55 1013.0
20260903224205 94 291 0.0 6.0 0.00 0.00 0.00 55 1012.9
20260903223204 94 236 0.0 3.0 0.00 0.00 0.00 54 1012.8
20260903222703 94 227 2.0 5.0 0.00 0.00 0.00 53 1012.8
20260903222203 94 227 2.0 5.0 0.00 0.00 0.00 53 1012.8
20260903221703 95 225 1.0 3.0 0.00 0.00 0.00 53 1012.7
20260903221204 95 208 1.0 3.0 0.00 0.00 0.00 52 1012.6
20260903220704 96 214 2.0 6.0 0.00 0.00 0.00 51 1012.6
20260903220204 96 212 3.0 6.0 0.00 0.00 0.00 51 1012.4
20260903215703 96 211 2.0 7.0 0.00 0.00 0.00 51 1012.4
20260903215204 96 221 3.0 8.0 0.00 0.00 0.00 50 1012.3
20260903214704 96 270 3.0 7.0 0.00 0.00 0.00 50 1012.3
20260903214204 96 228 5.0 9.0 0.00 0.00 0.00 50 1012.2
20260903213204 96 225 3.0 8.0 0.00 0.00 0.00 50 1012.2
20260903212703 96 291 3.0 6.0 0.00 0.00 0.00 50 1012.3
20260903212204 96 263 1.0 3.0 0.00 0.00 0.00 51 1012.4
20260903211704 96 253 2.0 6.0 0.00 0.00 0.00 51 1012.4
20260903211203 95 233 3.0 6.0 0.00 0.00 0.00 51 1012.4
20260903210704 95 233 2.0 7.0 0.00 0.00 0.00 51 1012.4
20260903210204 95 275 2.0 7.0 0.00 0.00 0.00 51 1012.4
20260903205704 95 279 3.0 6.0 0.00 0.00 0.00 51 1012.4
20260903205203 96 222 4.0 6.0 0.00 0.00 0.00 51 1012.4
20260903204703 96 204 2.0 6.0 0.00 0.00 0.00 51 1012.5
20260903204203 96 232 4.0 8.0 0.00 0.00 0.00 50 1012.7
20260903203704 96 229 3.0 9.0 0.00 0.00 0.00 50 1012.7
20260903203203 95 235 2.0 7.0 0.00 0.00 0.00 51 1012.7
20260903202203 95 251 4.0 10.0 0.00 0.00 0.00 50 1013.0
20260903201704 95 223 2.0 10.0 0.00 0.00 0.00 52 1012.9
20260903201204 95 221 3.0 8.0 0.00 0.00 0.00 50 1013.0
20260903200704 95 275 0.0 2.0 0.00 0.00 0.00 51 1013.1
20260903200204 95 203 5.0 10.0 0.00 0.00 0.00 49 1013.3
20260903195703 95 230 4.0 10.0 0.00 0.00 0.00 51 1013.4
20260903195203 95 205 5.0 12.0 0.00 0.00 0.00 50 1013.4
20260903194703 95 226 5.0 9.0 0.00 0.00 0.00 50 1013.4
20260903194204 95 231 6.0 9.0 0.00 0.00 0.00 51 1013.5
20260903193703 95 210 6.0 13.0 0.00 0.00 0.00 49 1013.6
20260903193203 95 225 2.0 7.0 0.00 0.00 0.00 52 1013.6
20260903192703 95 259 2.0 7.0 0.00 0.00 0.00 51 1013.6
20260903191704 95 217 2.0 7.0 0.00 0.00 0.00 51 1013.8
20260903191203 95 231 3.0 7.0 0.00 0.00 0.00 51 1013.8
20260903190205 95 230 3.0 8.0 0.00 0.00 0.00 51 1013.9
20260903185703 95 226 7.0 13.0 0.00 0.00 0.00 50 1013.9
20260903185203 95 194 2.0 8.0 0.00 0.00 0.00 49 1013.9
20260903184703 95 252 2.0 9.0 0.00 0.00 0.00 52 1014.0
20260903183205 95 200 4.0 10.0 0.00 0.00 0.00 51 1014.1
20260903182704 95 208 3.0 12.0 0.00 0.00 0.00 51 1014.1
20260903182203 95 229 1.0 6.0 0.00 0.00 0.00 53 1014.1
20260903181704 95 231 3.0 7.0 0.00 0.00 0.00 52 1014.1
20260903181203 95 231 1.0 6.0 0.00 0.00 0.00 55 1014.1
20260903180703 95 263 2.0 7.0 0.00 0.00 0.00 52 1014.2
20260903180204 95 208 1.0 3.0 0.00 0.00 0.00 53 1014.2
20260903175204 95 201 2.0 7.0 0.00 0.00 0.00 53 1014.2
20260903174703 95 153 3.0 7.0 0.00 0.00 0.00 53 1014.4
20260903174204 95 280 0.0 6.0 0.00 0.00 0.00 52 1014.4
20260903173703 94 318 2.0 5.0 0.00 0.00 0.00 56 1014.4
20260903173204 94 293 2.0 6.0 0.00 0.00 0.00 54 1014.4
20260903172204 94 219 3.0 7.0 0.00 0.00 0.00 53 1014.6
20260903171703 94 209 2.0 8.0 0.00 0.00 0.00 53 1014.6
20260903171204 94 219 3.0 8.0 0.00 0.00 0.00 54 1014.6
20260903170703 94 238 5.0 8.0 0.00 0.00 0.00 52 1014.7
20260903170203 94 210 5.0 10.0 0.00 0.00 0.00 51 1014.7
20260903165704 94 290 3.0 7.0 0.00 0.00 0.00 52 1014.8
20260903165203 94 338 1.0 6.0 0.00 0.00 0.00 53 1014.8
20260903164704 93 275 3.0 7.0 0.00 0.00 0.00 54 1014.9
20260903164203 93 211 3.0 7.0 0.00 0.00 0.00 55 1015.0
20260903163704 93 252 1.0 6.0 0.00 0.00 0.00 55 1015.0
20260903163204 93 267 3.0 8.0 0.00 0.00 0.00 55 1015.1
20260903162703 93 244 2.0 5.0 0.00 0.00 0.00 55 1015.1
20260903162204 93 229 4.0 8.0 0.00 0.00 0.00 55 1015.1
20260903161703 93 223 5.0 9.0 0.00 0.00 0.00 54 1015.1
20260903161203 93 232 4.0 8.0 0.00 0.00 0.00 54 1015.3
20260903160703 93 211 3.0 9.0 0.00 0.00 0.00 55 1015.2
20260903160203 92 220 2.0 6.0 0.00 0.00 0.00 55 1015.2
20260903155203 92 283 1.0 5.0 0.00 0.00 0.00 58 1015.3
20260903154704 92 287 1.0 5.0 0.00 0.00 0.00 59 1015.3
20260903154203 92 242 1.0 3.0 0.00 0.00 0.00 59 1015.3
20260903153705 92 272 2.0 7.0 0.00 0.00 0.00 60 1015.3
20260903153203 91 252 1.0 6.0 0.00 0.00 0.00 60 1015.3
20260903152704 91 282 1.0 3.0 0.00 0.00 0.00 60 1015.3
20260903152204 91 229 1.0 3.0 0.00 0.00 0.00 61 1015.3
20260903151704 90 261 1.0 5.0 0.00 0.00 0.00 60 1015.3
20260903151205 90 267 2.0 7.0 0.00 0.00 0.00 62 1015.2
20260903150205 90 230 0.0 3.0 0.00 0.00 0.00 63 1015.2
20260903145703 89 255 3.0 5.0 0.00 0.00 0.00 64 1015.2
20260903145203 89 275 1.0 3.0 0.00 0.00 0.00 64 1015.2
20260903144704 89 219 1.0 5.0 0.00 0.00 0.00 64 1015.1
20260903143705 88 219 1.0 5.0 0.00 0.00 0.00 68 1015.2
20260903143205 87 276 1.0 3.0 0.00 0.00 0.00 67 1015.2
20260903142704 87 217 3.0 6.0 0.00 0.00 0.00 69 1015.2
20260903142204 87 221 2.0 6.0 0.00 0.00 0.00 69 1015.1
20260903141704 86 273 1.0 6.0 0.00 0.00 0.00 70 1015.2
20260903141204 86 226 3.0 6.0 0.00 0.00 0.00 71 1015.2
20260903140703 86 239 2.0 3.0 0.00 0.00 0.00 71 1015.2
20260903135705 85 228 0.0 5.0 0.00 0.00 0.00 73 1015.3
20260903135204 85 216 1.0 5.0 0.00 0.00 0.00 72 1015.3
20260903134704 84 230 2.0 6.0 0.00 0.00 0.00 73 1015.3
20260903134204 84 221 2.0 5.0 0.00 0.00 0.00 73 1015.4
20260903133704 84 204 2.0 5.0 0.00 0.00 0.00 74 1015.4
20260903133204 84 221 0.0 3.0 0.00 0.00 0.00 74 1015.5
20260903132703 83 228 2.0 5.0 0.00 0.00 0.00 74 1015.6
20260903132204 83 235 1.0 5.0 0.00 0.00 0.00 75 1015.6
20260903131703 83 223 1.0 3.0 0.00 0.00 0.00 75 1015.6